Location: Owl River
(54.8872°N, 111.8867°W)
Time: 16:02:44
(UTC+00:00)

BlueWalker 3 - Pass Details

Date: 22 April 2024
Orbit: 481 x 494 km, 53.2° (Epoch: 26 May)

Event Time Altitude Azimuth Distance (km) Brightness Sun altitude
Rises 04:54:31 0° 258° (WSW) 2,574 5.9 -15.6°
Reaches altitude 10° 04:56:42 10° 256° (WSW) 1,694 4.9 -15.8°
Maximum altitude 05:00:30 67° 174° (S) 541 1.8 -16.1°
Enters shadow 05:02:37 25° 97° (E) 1,046 3.2 -16.3°
